CAPE
1953 2030 1817 1716 1867 1678 1698 1584 1816 1703 2215 1833 1767 1703 1770 1814 1682 1820 2028 2018 1906 1979 1966 2016 2216 2670 2552 2626 2452 2812 2873 2962 3004 2931 3430 3375 2969 3241 3132 3250 3628 3437 3432 3193 3304 3150 2805 2766 2960 2942 3118 2820 2836 2806 2591 2206 2881 3161 3278 4237 3661 3774 2968 2780 2285 2116 2582 3516 3394 3256 3216 3167 2881 2429 2264 2027 1709 1628 1848 1746 1669 1229 807 692 806
2020 1969 1855 1656 1744 1662 1771 1515 1628 1478 1696 1801 1532 1828 1816 1888 1771 1618 1846 1886 1913 1754 2562 2185 2222 2181 2254 2250 2264 2170 2638 2804 2810 2886 3240 3214 3181 3320 2992 3336 3143 3283 3271 3374 3350 3120 2944 3265 3302 3371 3312 3073 2967 2632 2332 2271 2115 2189 3204 2508 2534 2974 2978 2197 2119 2738 2567 3136 3417 3375 3314 3002 2707 2464 2219 2042 1956 1996 1798 1332 1432 1187 889 877 938
1980 1902 1860 1813 1985 1796 1761 1546 1439 1331 1228 1785 1494 1517 1643 1699 1656 1575 1482 1962 1894 1995 2116 2326 2161 2077 2134 2171 1933 2554 2546 2730 2831 2663 3061 3203 3210 2975 2592 3222 3076 3134 3317 3236 3058 2838 2786 2761 3284 3318 3201 2900 2792 2604 2453 2078 2510 1942 1914 2571 2231 2830 3367 2624 2824 3075 3318 3462 3404 3106 3004 2878 2587 2344 2239 2183 2121 2089 1766 1262 1332 1090 975 1055 936
1529 1596 1656 1666 1576 1778 1711 1614 1333 1360 1263 1245 1397 1343 1343 1406 1502 1244 1564 1814 1606 1719 1952 1879 2228 2069 2266 2323 2771 2624 2516 2519 2499 2356 2511 2870 3041 2935 2562 3116 3232 3356 3311 3173 2833 2652 2765 2635 2484 2564 2660 2457 2708 2670 2420 2636 2252 4059 2608 2777 2644 3056 3291 3759 3800 2785 3501 3074 3073 3167 2867 2600 2375 2244 2236 2324 2317 2163 1712 1355 1255 1326 1366 1132 951
1206 1298 1283 1297 1148 1388 1496 1606 1537 1384 1210 1170 932 1050 1166 1314 1484 1229 1172 1203 1488 1374 1866 2056 2931 2826 2676 2620 2488 2484 2586 2461 2420 2450 2384 2639 2832 2821 2640 2779 3178 3326 3248 2961 3749 3131 2592 2153 2153 2316 2156 2028 2297 2812 2447 1999 2029 1699 1800 2089 2035 3267 4159 3789 3583 3426 2943 2798 2614 2760 2800 2808 2683 2550 2491 2383 2055 1293 1104 1381 1851 1639 1313 1236 1469
1069 1165 1056 1200 1007 1040 1189 1312 1426 1368 1243 1105 914 749 676 1134 1570 1520 1371 1322 1371 1407 1839 1856 2923 2523 2414 2430 2463 2228 2301 2538 2561 2729 2583 2331 2657 2718 2720 2989 2734 2347 2420 2580 2684 2902 3040 2996 2944 2859 2665 2700 2230 1991 2181 1920 2941 2244 2050 2095 2263 2850 2985 2682 3169 3217 2867 2638 2524 2643 2746 2500 2324 1940 1652 1208 1072 1079 1119 1103 1166 1270 1481 1575 1726
2071 1023 1080 950 1066 1059 970 1064 1101 1148 1124 977 708 607 582 491 1232 1682 1645 1532 1459 1580 1760 1698 2302 2386 2146 2215 2420 2526 2424 2654 2768 2828 2868 2647 2268 2646 2706 2779 2918 2692 2551 2476 2597 2634 2670 2612 2584 2494 2315 2242 2245 2234 2089 2174 1871 1566 2001 2376 3022 2821 2550 2684 2610 2793 3313 3286 2606 2200 1824 1818 1849 1746 1583 1520 1606 1617 1497 1650 1153 1276 1551 1708 1398
2731 2770 2012 1833 1753 1839 1525 1466 1313 778 988 860 685 504 379 306 401 1501 1610 1455 1496 1424 1480 1539 1763 2115 2096 2030 2190 2462 2826 2867 2790 2980 3070 2825 2624 2468 2445 2548 2827 2903 2774 2614 2477 2546 2502 2375 2165 1927 2040 2076 1915 1933 1985 1926 2122 1985 1869 1752 2795 3105 2964 2906 2426 2052 1875 2327 2391 2312 2165 2057 1982 1823 1720 1592 1573 820 1958 1906 1593 1586 1725 1959 2157
2100 2672 2551 2015 2006 1838 1903 1955 2785 3674 2823 2102 1914 2131 2557 1259 905 974 1333 1514 1412 1371 1284 1329 1478 1661 1764 1929 2222 2444 2574 2708 2740 2941 3053 2925 2746 2580 2462 2417 2559 2458 2358 2270 2166 2136 2418 2471 2260 1947 1814 3686 4085 4248 3529 2639 1976 1864 2718 2398 2704 2339 2455 2656 2543 2566 2911 2867 2561 2387 2332 2243 1988 1675 1240 1020 886 1080 1919 2073 1659 1713 2073 2280 2513
1878 2223 2362 2110 1179 889 1889 3199 3251 2596 2714 3164 3318 3200 2911 2651 1891 1491 1694 1505 1322 1270 1314 1316 1317 1388 1432 1661 1987 2415 2202 2019 1990 2120 2800 2633 2394 2105 2023 2191 2284 2409 2298 2144 2051 2124 2161 2138 2056 2485 2208 2014 2044 2842 3126 3307 3047 1939 1543 1717 1806 2177 2549 2648 2597 2346 2044 1721 1532 1686 1866 1812 1629 1245 1093 1160 1005 1672 1757 1661 1608 2013 2378 2681 2611
1941 1938 1934 1759 1319 1073 1422 2374 2836 2201 2187 2281 2301 2588 2923 3025 2720 2173 1614 1410 1348 1229 1270 1272 1205 1063 997 1308 1560 1816 1843 1734 1583 1259 1907 2473 2542 1854 1538 1624 2156 2519 2659 2454 2201 2395 2444 2149 1939 2236 3421 3295 2905 2722 2654 2861 3466 2476 2001 2147 2255 1588 1446 1620 1793 1995 2111 2341 2326 1867 1570 1175 926 939 1224 1328 1145 1702 1715 1579 2043 2504 2818 2839 2686
1726 1722 1693 1428 1622 1315 1479 1895 2677 2270 1836 1860 1917 1920 2145 2389 2692 2414 2294 1673 1306 1560 1149 928 910 878 1095 1070 1179 1341 1449 1516 1271 1161 1372 1744 1901 1817 1681 1590 2472 2378 2319 2186 2136 2192 2026 1808 1545 1143 1559 2107 2239 2964 3307 3729 3336 2826 2111 1442 1658 2268 1712 1034 935 1053 993 876 970 1184 1398 1622 1720 1704 1444 1128 1580 1979 1999 2253 2740 3010 2910 2644 2311
1675 1554 1485 1490 1570 1887 1876 1989 2280 2334 2041 1955 1697 1747 1880 1918 2039 2258 2329 1811 1504 1421 1696 1582 1367 1034 733 740 841 930 918 764 808 986 1134 1074 1093 1354 1511 1714 1864 1806 1908 1900 1771 1678 1644 1624 1673 1537 1072 1267 2570 1627 1490 1712 2664 2431 1898 1912 2021 1833 1404 1570 1492 1846 1959 1774 1392 1114 1048 949 826 907 1423 2205 2320 2186 2480 2662 2729 2566 2319 1910 1688
1538 1249 962 948 884 1408 1666 1779 1973 2058 2159 2072 1899 1655 1732 1919 1882 1839 2631 1842 1595 1453 1541 1417 1082 1184 1515 1336 984 607 573 623 726 783 823 897 618 650 1052 1634 1586 1042 498 755 1189 1228 1423 1867 1846 2001 2597 2469 2382 2974 3037 2612 2949 3017 2439 1885 1499 2038 2866 2356 2034 2124 2108 2120 2178 2019 1740 1427 1425 1370 2278 2016 1596 1961 2317 1706 1612 1636 1686 1717 1740
1378 1304 1230 998 1101 1517 1822 1645 1519 1418 1561 1627 1914 1857 1719 1684 1808 2265 2141 1666 1674 1628 1668 1918 1509 1119 930 882 863 834 686 676 679 603 771 887 752 461 619 1152 1275 1001 1094 933 1385 1039 746 870 1187 2089 2190 1678 1851 2324 2126 2409 3396 3489 3452 3309 3068 2683 2628 2723 2918 3089 3118 2851 2568 2384 2292 2185 2049 1903 1740 1603 1532 1429 1288 1537 1893 1914 1794 1949 2091
1008 1118 929 902 1147 1286 1312 1445 1527 1397 1286 1267 1258 1498 1655 1845 1796 1752 1721 1670 2036 2428 2248 2065 1712 1405 1178 943 882 878 842 854 821 785 498 321 379 393 225 806 1065 892 874 1268 1051 1471 1311 1231 1420 1997 2262 1222 986 1220 1692 2662 3068 3125 2684 2918 3102 3202 2958 2663 2238 1847 1823 1988 2239 2099 1807 1762 1576 1566 1561 1716 1746 1904 2067 2126 1786 1823 1998 2103 2122
958 889 917 960 920 973 990 990 1063 1109 1078 985 936 939 1020 1043 1137 1470 1487 1474 1629 1877 1978 1707 1469 1330 1223 1148 1120 1070 952 854 878 955 929 438 504 1506 1675 1512 1481 1501 1875 1620 1404 1845 2124 1367 1103 1602 1565 1089 874 989 1324 2378 2039 2743 2982 3030 2918 2563 2333 2101 1854 1691 1960 2004 1961 1966 2276 2351 2225 2097 2114 2312 2289 2266 2382 2129 2176 2090 2140 2153 2102
572 650 696 805 835 898 958 952 901 878 846 857 807 821 787 772 746 922 1057 1018 1214 1205 1582 1526 1403 1248 1224 1149 988 927 1026 983 827 626 526 450 633 1701 2368 2367 2411 2216 2072 1897 1582 1437 2268 2927 1718 792 693 634 658 691 815 1229 1338 1504 1620 1710 1788 1839 1759 1691 1655 1649 1663 1697 1656 1479 1554 1882 2030 2144 2471 2530 2598 2462 2287 2337 2341 2295 2179 2033 1840
497 483 586 606 630 728 813 800 839 848 853 848 802 756 716 750 751 764 752 748 882 1092 1334 1354 1242 1176 1153 1052 1229 815 824 841 825 651 444 546 951 1725 2426 2333 2389 2226 1927 1731 1604 1375 1315 1487 1206 946 835 727 684 778 876 986 1121 1214 1294 1337 1336 1569 1341 1264 1147 972 974 1078 970 1031 1218 1349 1998 2316 2210 2625 2423 2255 2500 2567 2149 2003 1519 1477 1421
480 483 498 568 591 570 138 433 447 575 682 715 698 735 729 753 799 807 761 789 814 776 832 926 1002 974 926 890 839 778 780 786 724 600 567 673 939 1608 1918 1718 1854 1919 1806 1602 1626 1344 1228 1129 1036 955 896 827 749 827 966 1104 1238 1328 1296 1204 1124 1497 1002 908 849 751 676 639 656 745 1062 1735 1672 1407 1545 1646 1528 1615 2422 2753 2106 1616 1434 1381 1319
375 418 459 445 407 379 389 322 343 451 490 500 504 456 479 516 605 665 665 632 669 637 614 684 676 698 724 701 679 664 681 718 720 612 576 778 954 1142 1195 1280 1433 1519 1566 1462 1341 1248 1160 1078 1039 969 945 927 905 828 832 878 936 967 994 1004 982 921 878 823 700 580 495 497 511 529 1264 1092 1100 1321 1392 1264 1216 1343 1578 1407 1746 1855 1682 1418 1230
357 331 328 285 284 299 361 468 472 429 362 338 332 366 475 646 441 504 506 439 398 413 402 389 378 360 312 391 412 442 426 570 471 483 588 785 934 1044 1135 1223 1246 1272 1260 1217 1120 1102 1037 962 913 832 774 830 871 889 873 847 817 779 780 755 716 694 660 576 521 476 420 358 380 607 1038 1180 1306 1052 843 777 879 1072 1197 1280 1315 1271 1403 1538 1114
359 327 272 276 281 298 341 400 429 337 259 177 169 106 264 536 389 513 367 377 329 285 232 228 268 277 246 170 48 181 332 430 460 436 530 692 810 927 1001 1023 1009 970 876 948 1107 848 830 822 764 709 675 657 654 653 654 656 676 699 695 696 636 575 513 486 427 378 369 482 499 652 1037 1207 757 564 395 344 640 651 902 1421 1139 758 882 792 1062
340 318 299 302 302 280 286 336 323 107 114 59 42 65 12 247 261 276 448 340 165 96 59 0 0 0 0 2 0 0 89 353 456 494 390 582 664 691 668 577 539 575 608 539 594 638 651 681 646 633 571 529 448 400 379 392 398 388 384 376 347 315 296 274 367 378 649 707 793 460 338 439 340 352 310 299 184 138 740 810 134 203 117 36 39
81 276 283 285 286 287 226 210 51 42 235 210 8 98 118 155 228 229 17 197 211 147 74 142 183 161 109 14 19 2 57 264 452 427 383 462 422 391 352 310 328 343 369 408 432 482 514 516 533 470 366 219 181 133 136 113 193 185 124 28 0 174 199 273 406 580 323 293 302 333 309 295 243 186 112 44 1 90 368 104 24 28 1 0 1
247 256 254 217 201 202 241 96 0 0 0 0 0 157 236 195 224 190 162 113 112 157 153 123 91 117 168 24 6 48 255 269 372 144 270 348 341 302 294 281 238 193 177 183 221 265 276 262 221 167 117 62 29 27 126 203 296 56 20 104 180 9 180 278 195 176 160 157 167 189 202 203 75 0 0 0 0 0 57 20 6 0 0 0 0
25 0 220 213 170 108 204 200 187 100 0 0 0 18 101 156 164 194 189 165 166 76 136 93 148 169 181 34 17 48 226 278 300 298 335 336 280 245 230 196 159 143 140 144 152 163 134 112 92 75 58 52 39 28 26 39 46 56 62 165 240 79 192 157 133 130 100 81 98 88 24 0 0 0 0 0 0 0 4 7 0 0 0 0 0
0 0 0 0 94 1 2 58 95 145 143 0 0 0 0 0 0 0 0 0 150 85 18 111 93 63 31 3 1 9 106 255 269 256 219 204 195 210 204 189 190 191 186 149 114 88 50 26 12 0 0 20 54 75 104 154 115 111 149 0 0 0 0 0 0 0 0 0 0 0 0 0 0 0 0 0 0 0 0 0 0 0 0 0 0
0 0 0 0 0 0 1 0 61 45 4 0 0 0 0 0 0 0 0 0 128 88 0 0 0 0 0 0 0 0 0 106 196 179 186 185 188 177 164 140 119 82 4 0 0 0 0 0 0 0 0 5 52 156 120 197 302 4 0 0 0 0 0 0 0 0 0 0 0 0 0 0 0 0 0 0 0 0 0 0 0 0 0 0 0
0 0 0 0 0 0 0 0 0 0 0 23 0 0 0 0 0 0 0 0 0 0 0 0 0 0 0 0 0 0 0 0 0 0 0 0 0 0 0 0 0 0 0 0 0 0 0 0 0 0 6 74 104 160 123 297 0 0 0 0 0 0 0 0 0 0 0 0 0 0 0 0 0 0 0 0 0 0 0 0 0 0 0 0 0
0 0 0 0 0 0 0 0 0 0 0 0 0 5 0 0 0 0 0 0 0 0 0 0 0 0 0 0 0 0 0 0 0 0 0 0 0 0 0 0 0 0 0 0 0 0 0 0 0 0 0 128 10 0 0 0 0 0 0 0 0 0 0 0 0 0 0 0 0 0 0 0 0 0 0 0 0 0 0 0 0 0 0 0 0
0 0 0 0 0 1 0 0 0 0 1 0 0 27 32 0 0 0 0 0 0 0 0 0 0 0 0 0 0 0 0 0 0 0 0 0 0 0 0 0 0 0 0 0 0 0 0 0 0 0 0 0 0 0 0 0 0 0 0 0 0 0 0 0 0 0 0 0 0 0 0 0 0 0 0 0 0 0 0 0 0 0 0 0 0
0 0 0 0 0 0 0 0 0 0 0 0 0 0 0 0 0 0 0 0 0 0 0 0 0 0 0 0 0 0 0 0 0 0 0 0 0 0 0 0 0 0 0 0 0 0 0 0 0 0 0 0 0 0 0 0 0 0 0 0 0 0 0 0 0 0 0 0 0 0 0 0 0 0 0 0 0 0 0 0 0 0 0 0 0
0 0 0 0 0 0 0 0 0 0 0 0 0 0 0 0 0 0 1 0 0 0 0 0 0 0 0 0 0 0 0 0 0 0 0 0 0 0 0 0 0 0 0 0 0 0 0 0 0 0 0 0 0 0 0 0 0 0 0 0 0 0 0 0 0 0 0 0 0 0 0 0 0 0 0 0 0 0 0 0 0 0 0 0 0
0 0 0 0 0 0 0 0 0 0 0 0 0 0 0 5 20 12 5 0 0 0 0 0 0 0 0 0 0 0 0 0 0 0 0 0 0 0 0 0 0 0 0 0 0 0 0 0 0 0 0 0 0 0 0 0 0 0 0 0 0 0 0 0 0 0 0 0 0 0 0 0 0 0 0 0 0 0 0 0 0 0 0 0 0
0 0 0 0 0 0 0 0 0 0 0 0 0 0 0 4 6 8 0 15 13 6 5 0 0 0 0 0 0 0 0 0 0 0 0 0 0 0 0 0 0 0 0 0 0 0 0 0 0 0 0 0 0 0 0 0 0 0 0 0 0 0 0 0 0 0 0 0 0 0 0 0 0 0 0 0 0 0 0 0 0 0 0 0 0
0 0 0 0 0 0 0 0 0 0 0 0 0 0 3 1 0 0 1 0 0 0 0 0 0 0 0 0 0 0 0 0 0 0 0 0 0 0 0 0 0 0 0 0 0 0 0 0 0 0 0 0 0 0 0 0 0 0 0 0 0 0 0 0 0 0 0 0 0 0 0 0 0 0 0 0 0 0 0 0 0 0 0 0 0
0 0 0 0 0 0 0 0 0 0 0 0 0 0 0 0 0 0 0 0 0 3 0 0 0 0 0 0 0 0 0 0 0 0 0 0 0 0 0 0 0 0 0 0 0 0 0 0 0 0 0 0 0 0 0 0 0 0 0 0 0 0 0 0 0 0 0 0 0 0 0 0 0 0 0 0 0 0 0 0 0 0 0 0 0
0 0 0 0 0 0 0 0 0 0 0 0 0 0 0 0 0 0 0 0 0 0 0 0 0 0 0 0 0 0 0 0 0 0 0 0 0 0 0 0 0 0 0 0 0 0 0 0 0 0 0 0 0 0 0 0 0 0 0 0 0 0 0 0 0 0 0 0 0 0 0 0 0 0 0 0 0 0 0 0 0 0 0 0 0
0 0 0 0 0 0 0 0 1 0 0 0 0 0 0 0 0 0 0 0 0 0 0 0 0 0 0 0 0 0 0 0 0 0 0 0 0 0 0 0 0 0 0 0 0 0 0 0 0 0 0 0 0 0 0 0 0 1 5 6 6 6 6 6 4 2 1 0 2 3 2 1 1 0 0 0 0 0 0 0 0 0 0 0 0
0 0 0 0 0 0 0 0 0 0 0 0 0 0 0 0 0 0 0 0 0 0 0 0 0 0 0 0 0 0 0 0 0 0 0 0 0 0 0 0 0 0 0 0 0 0 0 0 0 0 0 0 0 0 2 2 5 8 10 10 10 8 8 8 10 10 10 7 5 2 1 0 0 0 0 0 0 0 0 0 0 0 0 0 0
0 0 0 0 0 0 0 0 0 0 0 0 0 0 0 0 0 0 0 0 0 0 0 0 0 0 0 0 0 0 0 0 0 0 0 0 0 0 0 0 0 0 0 0 0 0 0 0 0 0 0 0 0 0 0 0 1 2 3 6 10 10 10 9 7 6 5 2 1 0 0 0 0 2 3 3 3 4 3 1 0 0 0 0 0
0 0 0 0 0 0 0 0 0 0 0 0 0 0 0 0 0 0 0 0 0 0 0 0 0 0 0 0 0 0 0 0 0 0 0 0 0 0 0 0 0 0 0 0 0 0 0 0 0 0 0 0 0 0 0 0 0 0 2 3 3 3 3 2 1 0 0 0 0 0 1 3 2 1 1 0 0 0 0 0 0 0 0 0 0
0 2 3 0 0 0 0 0 0 0 0 0 0 0 0 0 0 0 0 0 0 0 0 0 0 0 0 0 0 0 0 0 0 0 0 0 0 0 0 0 0 0 0 0 0 0 0 0 0 0 0 0 0 0 0 0 0 0 0 0 0 0 0 0 0 0 0 0 0 0 0 0 0 0 0 0 0 0 0 0 0 0 0 0 0
0 0 2 0 0 0 0 0 0 0 0 0 0 0 0 0 0 0 0 0 0 0 0 0 0 0 0 0 0 0 0 0 0 0 0 0 0 0 0 0 0 2 1 0 0 0 0 0 1 2 2 1 2 0 0 0 0 0 0 0 0 0 0 0 0 0 0 0 0 0 0 0 0 0 0 0 0 0 0 0 0 0 1 3 4
0 0 0 0 0 0 0 0 0 0 0 0 0 0 0 0 0 0 0 0 0 0 0 0 0 0 0 0 0 0 0 0 0 0 0 0 0 0 0 0 0 1 2 2 1 2 3 1 3 5 7 6 4 3 2 1 2 1 2 2 2 1 1 1 2 1 0 0 0 0 0 0 0 0 0 0 0 0 0 0 0 6 10 12 13
0 0 0 3 0 1 0 0 0 0 0 0 0 0 0 0 0 0 0 0 0 0 0 0 0 0 0 0 0 0 0 0 0 0 0 0 0 0 0 0 0 0 1 3 1 1 0 1 2 3 3 6 4 4 4 3 2 4 4 4 3 2 2 2 1 1 0 0 0 0 0 0 0 0 0 0 0 0 0 1 8 12 12 11 12
6 8 18 11 8 0 0 0 0 0 0 0 0 0 0 0 0 0 0 0 0 0 0 0 0 0 0 0 0 0 0 0 0 0 0 0 0 0 0 0 0 0 1 2 3 2 2 1 0 2 3 4 3 1 1 4 6 5 5 5 4 4 2 0 0 0 0 0 0 0 0 0 0 0 0 0 0 0 0 4 10 9 12 15 19
0 0 12 2 0 0 0 0 0 0 0 0 0 0 0 0 0 0 0 0 0 0 0 0 0 0 0 0 0 0 0 0 0 0 0 0 0 0 0 0 0 0 0 0 1 2 2 1 3 3 3 2 2 1 0 0 0 1 0 0 0 0 0 0 0 0 0 0 0 0 0 0 0 0 0 0 0 0 0 3 8 7 19 27 28
2 0 3 3 5 0 0 0 0 0 0 0 0 0 0 0 0 0 0 0 0 0 0 0 0 0 0 0 0 0 0 0 0 0 0 0 0 0 0 0 0 0 0 0 0 0 0 0 0 0 1 2 0 0 1 2 1 2 1 1 0 0 0 0 0 0 0 0 0 0 0 0 0 0 0 0 0 0 0 1 6 25 34 38 39
0 0 0 0 0 0 0 0 0 0 0 0 0 0 0 0 0 0 0 0 0 0 0 0 0 0 0 0 3 0 0 0 0 0 0 0 0 0 0 0 1 3 2 2 1 0 0 0 0 0 0 0 0 0 1 1 2 2 1 0 0 0 0 0 0 0 0 0 0 0 0 0 0 0 0 0 0 0 1 8 23 27 28 16 7
Wind_Speed
18 16 14 14 16 14 13 11 9 9 10 9 10 9 10 9 9 9 9 6 6 5 4 3 3 2 2 2 3 2 2 2 2 3 3 2 0 1 1 1 2 1 1 1 1 1 2 1 2 3 4 4 4 4 5 4 2 2 4 7 8 8 9 8 8 5 3 6 7 6 6 4 4 4 3 3 2 2 4 7 9 11 12 13 13
19 18 16 15 17 16 15 13 11 11 12 11 12 11 11 11 11 11 9 8 7 6 5 4 4 3 4 3 2 3 2 3 3 4 3 2 1 1 1 3 1 1 2 2 2 1 2 2 2 3 4 3 3 3 2 3 2 3 5 6 7 6 6 8 7 6 4 3 2 4 5 5 4 3 2 2 3 4 5 7 10 12 13 12 10
18 18 17 15 17 18 17 16 14 12 11 12 11 12 12 11 12 12 10 10 9 7 6 6 6 5 5 5 4 4 3 3 4 4 4 4 3 3 2 3 3 2 2 2 1 1 2 2 2 3 3 3 2 1 2 2 6 7 4 4 5 6 7 8 8 6 4 3 4 3 4 3 4 3 3 5 6 8 8 9 11 12 12 12 9
15 16 16 15 16 17 18 18 15 13 11 13 12 12 12 12 12 12 13 14 12 10 9 8 8 7 7 6 6 6 6 5 5 5 6 5 5 5 4 5 4 4 4 2 2 2 2 2 2 2 3 3 3 2 2 3 6 6 5 4 4 4 6 6 6 7 5 4 3 6 4 4 4 4 5 6 7 8 11 12 13 13 13 10 8
14 14 15 15 15 17 16 17 17 14 13 13 12 13 13 13 13 12 13 14 13 12 12 13 13 11 9 8 7 8 7 7 6 6 7 8 7 7 6 7 7 6 5 4 3 4 4 4 2 3 3 3 4 4 4 4 4 2 3 4 3 4 6 7 6 6 5 4 2 3 4 5 6 5 6 8 8 11 13 14 14 13 12 10 9
14 15 15 16 15 16 16 17 17 15 13 13 13 14 14 16 16 15 14 14 16 14 14 14 15 12 10 10 10 9 9 9 8 7 8 10 9 9 9 9 8 7 7 6 4 4 5 6 6 7 7 6 5 4 4 3 5 5 4 4 4 4 3 4 5 5 5 3 4 3 6 6 7 8 7 9 9 9 10 10 11 12 12 10 9
21 18 18 17 16 16 17 17 18 16 15 14 14 15 15 15 17 17 17 16 18 17 16 15 16 14 12 12 11 11 10 10 10 10 10 10 11 12 12 12 10 10 9 7 6 7 7 8 8 8 7 7 7 5 5 5 4 4 5 4 4 4 4 4 5 6 7 6 7 8 8 8 10 7 6 8 9 11 12 11 13 13 13 12 9
27 24 23 22 20 20 20 22 22 19 17 15 15 16 16 15 17 18 19 19 19 18 17 16 16 16 14 13 13 14 13 12 12 12 13 12 13 13 14 14 13 14 14 13 12 11 10 10 9 10 11 10 8 7 8 7 8 6 5 6 9 10 9 9 10 11 11 11 11 10 11 11 9 10 9 10 11 11 12 14 12 11 11 15 16
29 31 28 26 25 24 25 25 25 25 22 21 20 21 22 21 21 20 18 21 20 19 18 18 17 16 16 15 14 15 15 14 14 14 14 15 16 16 15 14 15 15 15 14 13 12 12 11 11 11 12 10 9 9 8 9 9 8 9 12 12 13 13 13 13 14 13 13 11 12 12 11 10 10 10 11 11 10 11 13 12 12 13 14 14
30 31 33 36 37 37 34 30 29 28 29 26 25 26 26 24 24 24 22 21 21 20 20 19 19 18 17 17 16 17 22 24 25 19 15 17 18 19 19 19 18 17 17 16 15 14 13 12 11 7 6 6 5 6 6 5 8 11 12 13 14 15 16 16 16 15 15 13 12 12 12 12 12 13 13 12 11 12 10 11 10 10 12 13 16
29 32 37 38 35 31 28 25 25 26 25 24 25 27 26 25 25 24 23 24 25 26 26 25 25 24 24 23 25 25 21 16 17 16 14 12 20 19 19 19 18 18 19 20 18 17 17 16 15 14 12 9 10 8 8 6 9 12 15 17 17 17 16 15 15 16 17 16 16 16 15 13 12 13 13 12 12 12 12 11 11 13 14 13 13
23 27 34 38 37 33 30 25 20 19 23 23 24 25 26 26 26 24 24 25 25 25 24 23 23 22 23 24 26 24 21 18 16 24 23 21 20 21 21 20 20 21 21 20 20 19 18 16 16 18 20 20 18 17 15 10 10 13 15 17 17 17 18 19 17 17 17 15 14 14 15 14 15 15 12 12 12 13 12 12 14 14 14 14 16
17 19 25 30 29 24 23 20 16 19 24 25 24 25 26 26 26 25 25 24 26 27 26 25 24 23 24 26 26 23 20 21 21 21 21 22 26 24 23 22 22 22 23 22 22 20 19 19 19 22 19 15 21 20 18 16 12 11 12 13 15 17 18 17 18 18 18 17 16 15 15 16 15 15 17 15 16 14 14 14 16 15 16 15 16
19 19 20 23 23 21 19 19 18 20 24 26 28 27 27 27 25 25 27 28 28 27 26 26 26 27 28 26 25 24 25 26 23 24 23 23 25 29 27 26 25 25 27 29 28 26 26 25 26 27 26 27 26 25 23 21 19 19 18 18 18 17 18 19 17 14 16 17 18 17 15 20 17 19 18 18 16 15 15 15 16 14 14 16 17
22 21 20 20 20 19 20 21 23 28 32 31 30 29 29 30 30 31 31 31 31 29 28 28 28 28 30 30 29 29 28 28 26 30 31 30 28 30 30 28 29 32 34 34 33 32 30 30 28 29 28 28 28 27 27 25 24 22 21 21 21 21 21 21 21 21 21 19 18 17 16 18 19 18 19 20 18 17 18 16 15 14 12 14 17
18 17 19 19 18 18 19 22 25 29 32 33 33 33 34 34 34 34 34 33 33 34 34 34 33 31 31 32 32 32 32 34 33 36 36 32 29 32 33 31 32 33 35 39 36 33 32 31 31 30 30 31 30 30 28 26 25 26 26 25 23 23 24 23 22 22 22 23 22 21 20 20 22 22 21 21 20 19 18 17 17 15 13 13 14
21 19 18 18 19 17 17 18 20 22 24 27 30 32 35 37 38 36 35 35 36 37 36 37 37 37 35 34 34 34 35 35 34 34 36 34 33 32 35 35 34 35 39 39 38 36 34 33 34 34 33 32 31 31 30 30 29 28 26 26 26 26 26 26 33 34 29 24 21 19 18 18 19 20 20 19 21 21 22 20 17 18 16 15 15
24 23 22 21 20 19 18 17 17 17 18 20 22 24 26 28 30 31 33 34 36 39 40 41 40 40 38 38 38 38 36 34 32 33 35 36 33 32 31 34 35 37 37 38 39 38 36 38 39 37 36 35 34 34 33 32 31 30 30 28 28 27 30 29 27 26 25 25 25 23 20 18 18 18 19 20 20 23 24 20 20 22 19 19 16
27 27 25 25 25 24 22 24 24 23 22 21 20 19 19 19 22 24 28 31 34 37 39 41 42 41 42 42 41 41 36 32 32 33 35 36 34 32 30 30 33 35 36 37 38 38 39 41 43 40 38 36 37 38 37 35 32 30 29 29 29 28 30 28 27 25 25 25 25 24 23 21 24 25 25 24 27 25 25 24 23 25 21 20 19
31 31 29 27 27 27 26 27 27 26 25 25 25 24 23 22 23 25 26 27 28 30 31 32 32 33 33 34 37 33 31 30 31 33 36 39 37 36 35 35 34 35 37 37 36 35 35 36 39 39 39 38 38 38 38 35 33 31 30 30 29 28 30 28 26 25 25 26 25 24 24 26 27 27 27 27 27 27 28 27 27 27 25 23 22
34 35 34 33 32 31 28 28 30 28 27 26 27 27 25 27 28 29 29 29 29 28 27 28 28 26 23 24 26 27 27 29 29 31 37 43 48 48 43 38 32 29 29 31 33 34 33 34 34 35 36 36 35 35 36 36 33 32 31 30 30 31 29 28 26 25 25 26 27 26 28 29 30 30 31 30 28 27 27 26 26 27 26 25 23
35 36 37 36 36 34 32 30 32 31 30 29 28 27 28 29 29 28 29 29 29 30 31 32 33 33 31 30 29 27 26 29 30 33 36 43 47 43 33 24 18 15 18 19 22 27 30 32 34 33 32 33 32 32 33 35 34 32 30 28 33 34 31 30 28 28 28 27 27 27 29 31 33 34 32 32 30 28 27 27 27 26 25 26 26
38 37 37 37 37 36 34 34 35 35 33 32 31 30 29 31 30 27 27 28 30 32 33 33 34 33 33 32 nan 28 25 26 31 30 30 34 34 30 24 19 17 18 17 17 19 21 20 22 26 30 28 29 31 32 33 33 32 32 28 29 33 32 30 31 32 32 32 30 29 29 31 34 36 34 33 32 31 30 30 30 30 29 29 29 28
41 40 38 37 37 37 36 37 38 35 36 nan nan nan nan 33 33 32 31 32 33 nan nan nan nan nan nan nan nan nan nan 21 26 27 26 30 29 27 25 25 24 19 19 22 22 22 21 20 18 16 16 18 21 25 28 29 29 26 27 29 32 31 34 34 34 34 32 31 33 35 37 36 36 35 34 33 31 31 31 34 33 32 31 nan nan
nan 41 41 40 38 37 38 39 nan nan 44 44 nan nan 40 40 39 37 nan 35 34 35 nan 36 35 34 33 nan nan nan nan 27 30 32 35 34 36 37 34 32 30 26 25 24 24 24 24 21 17 13 11 11 12 16 19 21 21 23 23 nan nan 32 32 34 34 36 39 39 39 38 38 36 36 35 34 nan nan nan 32 33 nan nan nan nan nan
45 45 43 41 39 38 39 nan nan nan nan nan nan 42 44 42 40 39 40 40 40 37 35 36 nan 35 35 nan nan nan 39 37 36 35 34 36 36 38 38 37 35 33 31 28 29 29 28 23 20 17 16 nan nan nan 20 22 23 nan nan 24 28 nan 30 33 37 39 39 39 40 39 37 36 nan nan nan nan nan nan nan nan nan nan nan nan nan
nan nan 44 46 44 39 38 38 42 44 nan nan nan nan 44 44 43 42 43 42 42 nan 42 nan 37 35 38 nan nan nan 40 40 38 37 37 36 35 33 32 30 31 31 29 29 29 27 24 23 nan nan nan nan nan nan nan nan nan nan nan 23 25 nan 30 30 31 33 nan nan nan nan nan nan nan nan nan nan nan nan nan nan nan nan nan nan nan
nan nan nan nan nan nan nan nan nan 43 45 nan nan nan nan nan nan nan nan nan 39 nan nan 43 nan nan nan nan nan nan 42 41 39 36 35 34 32 31 30 29 29 28 28 28 26 nan nan nan nan nan nan nan nan nan 24 22 24 24 24 nan nan nan nan nan nan nan nan nan nan nan nan nan nan nan nan nan nan nan nan nan nan nan nan nan nan
nan nan nan nan nan nan nan nan nan nan nan nan nan nan nan nan nan nan nan nan 41 nan nan nan nan nan nan nan nan nan nan 41 38 35 34 33 33 32 33 32 29 nan nan nan nan nan nan nan nan nan nan nan nan 22 22 21 25 nan nan nan nan nan nan nan nan nan nan nan nan nan nan nan nan nan nan nan nan nan nan nan nan nan nan nan nan
nan nan nan nan nan nan nan nan nan nan nan nan nan nan nan nan nan nan nan nan nan nan nan nan nan nan nan nan nan nan nan nan nan nan nan nan nan nan nan nan nan nan nan nan nan nan nan nan nan nan nan nan 21 20 23 28 nan nan nan nan nan nan nan nan nan nan nan nan nan nan nan nan nan nan nan nan nan nan nan nan nan nan nan nan nan
nan nan nan nan nan nan nan nan nan nan nan nan nan nan nan nan nan nan nan nan nan nan nan nan nan nan nan nan nan nan nan nan nan nan nan nan nan nan nan nan nan nan nan nan nan nan nan nan nan nan nan 25 nan nan nan nan nan nan nan nan nan nan nan nan nan nan nan nan nan nan nan nan nan nan nan nan nan nan nan nan nan nan nan nan nan
nan nan nan nan nan nan nan nan nan nan nan nan nan nan nan nan nan nan nan nan nan nan nan nan nan nan nan nan nan nan nan nan nan nan nan nan nan nan nan nan nan nan nan nan nan nan nan nan nan nan nan nan nan nan nan nan nan nan nan nan nan nan nan nan nan nan nan nan nan nan nan nan nan nan nan nan nan nan nan nan nan nan nan nan nan
nan nan nan nan nan nan nan nan nan nan nan nan nan nan nan nan nan nan nan nan nan nan nan nan nan nan nan nan nan nan nan nan nan nan nan nan nan nan nan nan nan nan nan nan nan nan nan nan nan nan nan nan nan nan nan nan nan nan nan nan nan nan nan nan nan nan nan nan nan nan nan nan nan nan nan nan nan nan nan nan nan nan nan nan nan
nan nan nan nan nan nan nan nan nan nan nan nan nan nan nan nan nan nan nan nan nan nan nan nan nan nan nan nan nan nan nan nan nan nan nan nan nan nan nan nan nan nan nan nan nan nan nan nan nan nan nan nan nan nan nan nan nan nan nan nan nan nan nan nan nan nan nan nan nan nan nan nan nan nan nan nan nan nan nan nan nan nan nan nan nan
nan nan nan nan nan nan nan nan nan nan nan nan nan nan nan nan nan nan nan nan nan nan nan nan nan nan nan nan nan nan nan nan nan nan nan nan nan nan nan nan nan nan nan nan nan nan nan nan nan nan nan nan nan nan nan nan nan nan nan nan nan nan nan nan nan nan nan nan nan nan nan nan nan nan nan nan nan nan nan nan nan nan nan nan nan
nan nan nan nan nan nan nan nan nan nan nan nan nan nan nan nan nan nan nan nan nan nan nan nan nan nan nan nan nan nan nan nan nan nan nan nan nan nan nan nan nan nan nan nan nan nan nan nan nan nan nan nan nan nan nan nan nan nan nan nan nan nan nan nan nan nan nan nan nan nan nan nan nan nan nan nan nan nan nan nan nan nan nan nan nan
nan nan nan nan nan nan nan nan nan nan nan nan nan nan nan nan nan nan nan nan nan nan nan nan nan nan nan nan nan nan nan nan nan nan nan nan nan nan nan nan nan nan nan nan nan nan nan nan nan nan nan nan nan nan nan nan nan nan nan nan nan nan nan nan nan nan nan nan nan nan nan nan nan nan nan nan nan nan nan nan nan nan nan nan nan
nan nan nan nan nan nan nan nan nan nan nan nan nan nan nan nan nan nan nan nan nan nan nan nan nan nan nan nan nan nan nan nan nan nan nan nan nan nan nan nan nan nan nan nan nan nan nan nan nan nan nan nan nan nan nan nan nan nan nan nan nan nan nan nan nan nan nan nan nan nan nan nan nan nan nan nan nan nan nan nan nan nan nan nan nan
nan nan nan nan nan nan nan nan nan nan nan nan nan nan nan nan nan nan nan nan nan nan nan nan nan nan nan nan nan nan nan nan nan nan nan nan nan nan nan nan nan nan nan nan nan nan nan nan nan nan nan nan nan nan nan nan nan nan nan nan nan nan nan nan nan nan nan nan nan nan nan nan nan nan nan nan nan nan nan nan nan nan nan nan nan
nan nan nan nan nan nan nan nan nan nan nan nan nan nan nan nan nan nan nan nan nan nan nan nan nan nan nan nan nan nan nan nan nan nan nan nan nan nan nan nan nan nan nan nan nan nan nan nan nan nan nan nan nan nan nan nan nan nan nan nan nan nan nan nan nan nan nan nan nan nan nan nan nan nan nan nan nan nan nan nan nan nan nan nan nan
nan nan nan nan nan nan nan nan nan nan nan nan nan nan nan nan nan nan nan nan nan nan nan nan nan nan nan nan nan nan nan nan nan nan nan nan nan nan nan nan nan nan nan nan nan nan nan nan nan nan nan nan nan nan nan nan nan nan nan nan nan nan nan nan nan nan nan nan nan nan nan nan nan nan nan nan nan nan nan nan nan nan nan nan nan
nan nan nan nan nan nan nan nan nan nan nan nan nan nan nan nan nan nan nan nan nan nan nan nan nan nan nan nan nan nan nan nan nan nan nan nan nan nan nan nan nan nan nan nan nan nan nan nan nan nan nan nan nan nan nan nan nan nan nan nan nan nan nan nan nan nan nan nan nan nan nan nan nan nan nan nan nan nan nan nan nan nan nan nan nan
nan nan nan nan nan nan nan nan nan nan nan nan nan nan nan nan nan nan nan nan nan nan nan nan nan nan nan nan nan nan nan nan nan nan nan nan nan nan nan nan nan nan nan nan nan nan nan nan nan nan nan nan nan nan nan nan nan nan nan nan nan nan nan nan nan nan nan nan nan nan nan nan nan nan nan nan nan nan nan nan nan nan nan nan nan
nan nan nan nan nan nan nan nan nan nan nan nan nan nan nan nan nan nan nan nan nan nan nan nan nan nan nan nan nan nan nan nan nan nan nan nan nan nan nan nan nan nan nan nan nan nan nan nan nan nan nan nan nan nan nan nan nan nan nan nan nan nan nan nan nan nan nan nan nan nan nan nan nan nan nan nan nan nan nan nan nan nan nan nan nan
nan nan nan nan nan nan nan nan nan nan nan nan nan nan nan nan nan nan nan nan nan nan nan nan nan nan nan nan nan nan nan nan nan nan nan nan nan nan nan nan nan nan nan nan nan nan nan nan nan nan nan nan nan nan nan nan nan nan nan nan nan nan nan nan nan nan nan nan nan nan nan nan nan nan nan nan nan nan nan nan nan nan nan nan nan
nan nan nan nan nan nan nan nan nan nan nan nan nan nan nan nan nan nan nan nan nan nan nan nan nan nan nan nan nan nan nan nan nan nan nan nan nan nan nan nan nan nan nan nan nan nan nan nan nan nan nan nan nan nan nan nan nan nan nan nan nan nan nan nan nan nan nan nan nan nan nan nan nan nan nan nan nan nan nan nan nan nan nan nan nan
nan nan nan nan nan nan nan nan nan nan nan nan nan nan nan nan nan nan nan nan nan nan nan nan nan nan nan nan nan nan nan nan nan nan nan nan nan nan nan nan nan nan nan nan nan nan nan nan nan nan nan nan nan nan nan nan nan nan nan nan nan nan nan nan nan nan nan nan nan nan nan nan nan nan nan nan nan nan nan nan nan nan nan nan nan
nan nan nan nan nan nan nan nan nan nan nan nan nan nan nan nan nan nan nan nan nan nan nan nan nan nan nan nan nan nan nan nan nan nan nan nan nan nan nan nan nan nan nan nan nan nan nan nan nan nan nan nan nan nan nan nan nan nan nan nan nan nan nan nan nan nan nan nan nan nan nan nan nan nan nan nan nan nan nan nan nan nan nan nan nan
nan nan nan nan nan nan nan nan nan nan nan nan nan nan nan nan nan nan nan nan nan nan nan nan nan nan nan nan nan nan nan nan nan nan nan nan nan nan nan nan nan nan nan nan nan nan nan nan nan nan nan nan nan nan nan nan nan nan nan nan nan nan nan nan nan nan nan nan nan nan nan nan nan nan nan nan nan nan nan nan nan nan nan nan nan
nan nan nan nan nan nan nan nan nan nan nan nan nan nan nan nan nan nan nan nan nan nan nan nan nan nan nan nan nan nan nan nan nan nan nan nan nan nan nan nan nan nan nan nan nan nan nan nan nan nan nan nan nan nan nan nan nan nan nan nan nan nan nan nan nan nan nan nan nan nan nan nan nan nan nan nan nan nan nan nan nan nan nan nan nan
nan nan nan nan nan nan nan nan nan nan nan nan nan nan nan nan nan nan nan nan nan nan nan nan nan nan nan nan nan nan nan nan nan nan nan nan nan nan nan nan nan nan nan nan nan nan nan nan nan nan nan nan nan nan nan nan nan nan nan nan nan nan nan nan nan nan nan nan nan nan nan nan nan nan nan nan nan nan nan nan nan nan nan nan nan
Wind_Direction
272 265 267 262 270 274 267 267 255 255 249 264 264 264 248 259 255 257 246 247 239 235 210 209 217 218 218 200 200 201 200 231 244 242 264 261 249 210 174 297 332 351 316 29 198 194 192 232 252 261 249 222 220 204 196 192 225 289 277 284 288 296 301 306 327 6 351 351 9 29 54 53 52 24 23 29 43 23 350 340 334 335 337 343 345
268 263 267 260 271 276 270 270 255 253 246 259 255 253 247 247 247 256 257 252 251 245 233 235 234 235 222 231 222 215 210 235 251 254 252 255 241 248 202 260 303 292 286 272 236 194 219 230 269 272 264 263 239 226 200 197 207 261 255 269 293 311 305 303 330 323 352 336 359 45 42 39 41 25 14 49 30 354 349 333 332 332 339 341 343
266 266 264 260 263 271 269 267 262 253 251 255 258 258 253 248 241 248 260 253 254 252 245 242 250 243 235 235 235 233 255 249 246 256 259 267 270 254 242 282 298 305 279 255 240 214 190 220 245 274 266 272 278 286 262 228 257 286 285 284 292 306 311 312 300 323 0 23 6 11 8 7 6 36 25 6 359 349 341 338 335 334 335 343 348
266 269 261 262 262 267 262 261 267 257 255 251 261 261 261 256 250 243 248 250 253 244 251 248 249 253 251 245 246 258 268 260 251 255 269 273 269 270 247 253 264 271 270 264 274 284 297 261 213 248 261 245 250 277 287 261 258 265 273 273 285 292 314 312 316 320 337 353 1 345 348 345 354 1 349 344 344 338 333 332 331 340 343 352 354
261 267 261 263 261 266 264 260 261 258 254 249 254 258 261 268 261 257 249 244 250 248 244 242 248 253 257 255 257 258 266 274 270 268 270 271 274 269 262 255 260 264 264 259 245 262 289 299 290 257 244 235 220 235 234 210 202 249 268 272 285 292 300 321 337 333 334 353 346 315 314 308 325 329 326 327 317 315 317 322 334 337 340 351 358
259 260 258 253 259 260 264 258 259 260 254 248 250 253 253 259 268 263 260 253 250 254 249 241 247 250 252 251 255 257 258 262 270 269 268 272 281 278 271 269 269 265 262 261 254 254 266 275 269 266 264 271 262 240 234 224 238 254 249 231 227 241 275 293 307 318 315 321 298 257 271 293 286 300 307 303 304 305 306 319 320 325 327 336 353
237 250 249 250 253 257 259 257 258 256 252 248 251 251 255 253 264 270 264 257 253 254 249 248 247 250 251 252 251 254 257 260 263 264 263 263 268 272 268 264 263 267 263 265 271 269 267 268 272 274 272 275 275 273 264 250 246 240 255 249 263 271 258 246 253 266 276 275 274 290 281 283 290 280 285 286 291 308 311 304 311 324 323 329 347
229 230 242 241 242 246 246 245 243 245 251 248 247 247 248 253 255 265 269 268 263 258 254 252 252 253 252 252 250 249 253 256 258 260 261 265 265 264 265 266 265 266 260 250 245 246 254 259 263 272 278 276 276 270 267 264 268 269 270 265 260 264 264 264 261 259 254 257 268 267 279 283 273 289 286 275 277 274 292 304 297 309 314 325 335
236 230 229 234 235 235 235 235 234 235 237 243 246 242 236 240 242 252 269 269 265 262 258 258 257 258 256 257 256 252 258 260 262 263 261 264 263 263 263 263 267 267 263 258 253 251 248 250 257 266 272 281 289 279 272 274 270 272 273 281 279 276 273 270 272 272 269 271 271 276 279 280 293 290 278 285 282 300 306 294 304 313 317 308 317
239 237 236 234 226 217 217 228 236 235 234 234 234 240 240 240 243 242 241 245 252 250 257 257 255 255 257 257 256 254 246 237 220 207 267 264 268 269 263 260 260 266 270 269 266 264 258 252 249 252 255 257 269 292 298 295 294 289 285 278 275 271 270 272 273 276 279 279 284 288 285 290 294 293 295 298 297 298 285 286 287 299 295 304 316
235 236 237 237 239 238 230 220 226 237 238 235 241 244 243 242 246 247 249 249 250 251 250 249 247 245 248 248 245 244 255 265 273 248 211 262 274 273 270 268 268 271 269 270 268 268 266 263 260 254 259 271 265 264 265 275 315 307 293 288 284 276 276 275 275 280 282 285 285 285 290 289 290 292 296 296 296 299 306 301 306 302 304 303 304
234 236 239 240 234 227 228 227 225 238 247 243 241 244 244 244 247 249 251 253 253 254 254 252 252 250 251 252 251 250 251 257 249 238 241 245 242 255 267 266 271 271 271 274 274 272 272 271 268 269 266 267 267 269 270 264 289 302 297 292 292 293 291 286 283 279 281 283 283 288 288 293 291 289 291 293 297 295 299 300 306 307 307 308 309
239 248 250 243 241 234 231 230 224 229 239 243 245 249 249 246 244 246 252 251 252 254 253 250 249 250 252 255 261 259 256 261 255 257 252 250 257 256 248 260 267 267 271 270 267 266 264 264 260 261 267 259 260 260 263 263 262 277 280 282 282 287 291 292 291 290 286 288 289 285 290 287 287 290 291 289 288 290 294 298 303 304 308 308 308
231 240 252 249 244 237 244 244 241 240 240 241 245 249 249 249 248 247 251 251 249 248 250 251 250 249 250 255 262 263 259 253 258 266 266 265 265 264 259 251 253 260 264 263 261 261 260 259 260 259 257 258 258 260 261 259 257 262 265 268 270 271 279 289 295 301 294 289 287 288 288 288 293 289 289 288 284 290 294 298 299 301 306 312 310
220 225 227 239 248 246 241 243 241 241 243 244 248 249 250 251 251 249 248 251 255 255 253 252 252 255 258 258 258 261 259 254 261 263 263 266 270 272 267 262 254 253 255 256 257 261 263 263 263 262 263 262 256 254 259 261 263 265 266 267 270 272 275 279 278 281 286 291 293 295 292 289 294 298 296 294 297 299 299 300 299 305 313 308 306
224 224 231 229 238 242 240 236 234 235 240 241 244 247 248 249 248 247 248 249 251 255 254 254 255 254 255 259 262 263 257 248 250 258 262 260 265 273 275 275 265 256 254 256 257 258 262 263 263 262 261 258 248 246 250 256 258 261 265 267 268 270 270 272 276 278 274 276 283 288 290 286 283 290 291 291 291 293 291 288 289 299 300 294 294
231 228 233 234 235 241 246 245 242 239 239 242 244 245 247 248 251 252 251 249 250 252 254 256 258 260 262 264 266 263 260 252 250 257 262 261 262 269 273 273 269 262 260 260 258 257 259 261 259 259 260 258 252 250 247 251 257 256 257 260 263 263 262 261 259 268 266 267 270 275 279 283 288 295 298 299 301 295 291 288 292 290 283 284 288
241 239 237 239 238 241 249 253 247 242 240 242 244 246 249 251 253 254 256 256 255 255 254 257 259 263 267 270 270 269 262 254 253 256 260 263 265 262 264 268 268 270 269 265 262 258 253 256 259 258 259 258 254 251 247 256 259 259 258 257 257 259 261 258 259 260 258 258 258 258 267 279 287 288 293 299 303 296 292 287 287 280 283 285 286
248 250 248 246 248 248 248 249 246 244 245 245 247 252 256 258 256 258 260 257 255 254 254 257 257 259 262 266 270 265 260 257 257 258 258 258 259 260 260 260 266 270 273 270 266 263 258 254 255 258 261 262 259 257 253 256 260 260 261 262 261 261 262 258 260 261 262 264 265 265 269 269 272 274 275 272 279 289 290 290 286 285 287 287 288
253 252 253 252 248 247 246 248 248 247 246 247 246 250 255 259 264 266 263 263 260 256 253 254 256 261 263 260 256 255 256 254 251 252 258 258 258 258 257 263 268 272 274 274 271 266 263 261 257 257 259 261 263 263 261 257 261 261 261 264 265 265 261 258 262 263 265 267 271 273 275 276 275 274 274 273 272 275 281 289 294 294 294 295 295
253 254 253 251 248 243 239 240 243 243 245 251 250 245 245 253 256 258 260 260 259 258 257 255 256 254 253 253 253 253 259 260 257 252 251 254 257 259 258 262 266 271 273 272 270 267 264 263 263 262 262 259 259 260 262 258 258 260 261 262 263 261 258 259 258 255 265 267 269 271 275 276 275 277 277 276 276 279 281 282 284 291 294 294 292
253 253 251 249 246 242 239 245 248 246 243 243 247 247 246 247 250 252 255 256 258 257 254 251 251 249 247 247 247 247 254 261 265 260 254 254 256 256 255 255 259 265 272 279 278 271 266 264 264 268 267 263 260 257 257 260 260 260 262 260 252 253 258 260 262 266 268 267 267 271 271 272 274 274 275 276 277 279 280 281 282 283 287 291 292
249 251 252 250 248 242 239 240 246 247 242 241 240 238 239 245 247 246 247 250 254 256 256 254 252 251 250 250 nan 250 251 258 262 261 257 255 250 241 240 251 255 267 270 276 279 277 273 266 265 269 263 255 253 254 257 260 261 267 264 258 259 260 260 262 265 267 270 269 268 269 269 271 272 272 274 275 276 276 276 278 278 278 279 276 278
253 250 247 248 248 244 239 239 239 246 248 nan nan nan nan 238 244 243 246 252 256 nan nan nan nan nan nan nan nan nan nan 254 257 259 258 253 242 234 244 261 270 271 272 266 267 270 271 271 268 263 259 258 254 256 258 263 267 265 262 261 263 266 266 264 266 269 268 265 266 266 269 271 272 271 272 275 276 276 278 278 277 279 280 nan nan
nan 251 251 248 248 246 244 241 nan nan 246 243 nan nan 237 238 241 240 nan 244 254 258 nan 258 257 257 257 nan nan nan nan 248 246 244 243 246 237 237 249 259 264 264 266 263 260 262 265 269 270 261 255 249 251 257 262 264 270 274 274 nan nan 273 272 267 263 264 263 263 267 269 271 272 274 274 276 nan nan nan 281 281 nan nan nan nan nan
249 247 249 249 249 248 246 nan nan nan nan nan nan 240 241 238 237 238 242 245 244 248 256 257 nan 257 257 nan nan nan 243 243 245 244 243 242 244 245 253 255 253 253 257 254 246 248 247 245 250 252 251 nan nan nan 261 264 263 nan nan 281 278 nan 273 268 264 263 263 264 267 268 269 271 nan nan nan nan nan nan nan nan nan nan nan nan nan
nan nan 246 247 244 246 250 247 243 242 nan nan nan nan 244 245 241 239 240 237 241 nan 245 nan 249 254 256 nan nan nan 246 245 245 245 246 249 252 252 253 251 244 245 247 248 246 250 248 250 nan nan nan nan nan nan nan nan nan nan nan 265 270 nan 271 271 271 270 nan nan nan nan nan nan nan nan nan nan nan nan nan nan nan nan nan nan nan
nan nan nan nan nan nan nan nan nan 244 242 nan nan nan nan nan nan nan nan nan 239 nan nan 247 nan nan nan nan nan nan 248 249 249 249 250 252 254 255 256 254 252 253 252 251 251 nan nan nan nan nan nan nan nan nan 259 263 265 264 261 nan nan nan nan nan nan nan nan nan nan nan nan nan nan nan nan nan nan nan nan nan nan nan nan nan nan
nan nan nan nan nan nan nan nan nan nan nan nan nan nan nan nan nan nan nan nan 243 nan nan nan nan nan nan nan nan nan nan 250 252 253 254 255 256 255 255 256 256 nan nan nan nan nan nan nan nan nan nan nan nan 254 260 269 264 nan nan nan nan nan nan nan nan nan nan nan nan nan nan nan nan nan nan nan nan nan nan nan nan nan nan nan nan
nan nan nan nan nan nan nan nan nan nan nan nan nan nan nan nan nan nan nan nan nan nan nan nan nan nan nan nan nan nan nan nan nan nan nan nan nan nan nan nan nan nan nan nan nan nan nan nan nan nan nan nan 267 266 260 266 nan nan nan nan nan nan nan nan nan nan nan nan nan nan nan nan nan nan nan nan nan nan nan nan nan nan nan nan nan
nan nan nan nan nan nan nan nan nan nan nan nan nan nan nan nan nan nan nan nan nan nan nan nan nan nan nan nan nan nan nan nan nan nan nan nan nan nan nan nan nan nan nan nan nan nan nan nan nan nan nan 258 nan nan nan nan nan nan nan nan nan nan nan nan nan nan nan nan nan nan nan nan nan nan nan nan nan nan nan nan nan nan nan nan nan
nan nan nan nan nan nan nan nan nan nan nan nan nan nan nan nan nan nan nan nan nan nan nan nan nan nan nan nan nan nan nan nan nan nan nan nan nan nan nan nan nan nan nan nan nan nan nan nan nan nan nan nan nan nan nan nan nan nan nan nan nan nan nan nan nan nan nan nan nan nan nan nan nan nan nan nan nan nan nan nan nan nan nan nan nan
nan nan nan nan nan nan nan nan nan nan nan nan nan nan nan nan nan nan nan nan nan nan nan nan nan nan nan nan nan nan nan nan nan nan nan nan nan nan nan nan nan nan nan nan nan nan nan nan nan nan nan nan nan nan nan nan nan nan nan nan nan nan nan nan nan nan nan nan nan nan nan nan nan nan nan nan nan nan nan nan nan nan nan nan nan
nan nan nan nan nan nan nan nan nan nan nan nan nan nan nan nan nan nan nan nan nan nan nan nan nan nan nan nan nan nan nan nan nan nan nan nan nan nan nan nan nan nan nan nan nan nan nan nan nan nan nan nan nan nan nan nan nan nan nan nan nan nan nan nan nan nan nan nan nan nan nan nan nan nan nan nan nan nan nan nan nan nan nan nan nan
nan nan nan nan nan nan nan nan nan nan nan nan nan nan nan nan nan nan nan nan nan nan nan nan nan nan nan nan nan nan nan nan nan nan nan nan nan nan nan nan nan nan nan nan nan nan nan nan nan nan nan nan nan nan nan nan nan nan nan nan nan nan nan nan nan nan nan nan nan nan nan nan nan nan nan nan nan nan nan nan nan nan nan nan nan
nan nan nan nan nan nan nan nan nan nan nan nan nan nan nan nan nan nan nan nan nan nan nan nan nan nan nan nan nan nan nan nan nan nan nan nan nan nan nan nan nan nan nan nan nan nan nan nan nan nan nan nan nan nan nan nan nan nan nan nan nan nan nan nan nan nan nan nan nan nan nan nan nan nan nan nan nan nan nan nan nan nan nan nan nan
nan nan nan nan nan nan nan nan nan nan nan nan nan nan nan nan nan nan nan nan nan nan nan nan nan nan nan nan nan nan nan nan nan nan nan nan nan nan nan nan nan nan nan nan nan nan nan nan nan nan nan nan nan nan nan nan nan nan nan nan nan nan nan nan nan nan nan nan nan nan nan nan nan nan nan nan nan nan nan nan nan nan nan nan nan
nan nan nan nan nan nan nan nan nan nan nan nan nan nan nan nan nan nan nan nan nan nan nan nan nan nan nan nan nan nan nan nan nan nan nan nan nan nan nan nan nan nan nan nan nan nan nan nan nan nan nan nan nan nan nan nan nan nan nan nan nan nan nan nan nan nan nan nan nan nan nan nan nan nan nan nan nan nan nan nan nan nan nan nan nan
nan nan nan nan nan nan nan nan nan nan nan nan nan nan nan nan nan nan nan nan nan nan nan nan nan nan nan nan nan nan nan nan nan nan nan nan nan nan nan nan nan nan nan nan nan nan nan nan nan nan nan nan nan nan nan nan nan nan nan nan nan nan nan nan nan nan nan nan nan nan nan nan nan nan nan nan nan nan nan nan nan nan nan nan nan
nan nan nan nan nan nan nan nan nan nan nan nan nan nan nan nan nan nan nan nan nan nan nan nan nan nan nan nan nan nan nan nan nan nan nan nan nan nan nan nan nan nan nan nan nan nan nan nan nan nan nan nan nan nan nan nan nan nan nan nan nan nan nan nan nan nan nan nan nan nan nan nan nan nan nan nan nan nan nan nan nan nan nan nan nan
nan nan nan nan nan nan nan nan nan nan nan nan nan nan nan nan nan nan nan nan nan nan nan nan nan nan nan nan nan nan nan nan nan nan nan nan nan nan nan nan nan nan nan nan nan nan nan nan nan nan nan nan nan nan nan nan nan nan nan nan nan nan nan nan nan nan nan nan nan nan nan nan nan nan nan nan nan nan nan nan nan nan nan nan nan
nan nan nan nan nan nan nan nan nan nan nan nan nan nan nan nan nan nan nan nan nan nan nan nan nan nan nan nan nan nan nan nan nan nan nan nan nan nan nan nan nan nan nan nan nan nan nan nan nan nan nan nan nan nan nan nan nan nan nan nan nan nan nan nan nan nan nan nan nan nan nan nan nan nan nan nan nan nan nan nan nan nan nan nan nan
nan nan nan nan nan nan nan nan nan nan nan nan nan nan nan nan nan nan nan nan nan nan nan nan nan nan nan nan nan nan nan nan nan nan nan nan nan nan nan nan nan nan nan nan nan nan nan nan nan nan nan nan nan nan nan nan nan nan nan nan nan nan nan nan nan nan nan nan nan nan nan nan nan nan nan nan nan nan nan nan nan nan nan nan nan
nan nan nan nan nan nan nan nan nan nan nan nan nan nan nan nan nan nan nan nan nan nan nan nan nan nan nan nan nan nan nan nan nan nan nan nan nan nan nan nan nan nan nan nan nan nan nan nan nan nan nan nan nan nan nan nan nan nan nan nan nan nan nan nan nan nan nan nan nan nan nan nan nan nan nan nan nan nan nan nan nan nan nan nan nan
nan nan nan nan nan nan nan nan nan nan nan nan nan nan nan nan nan nan nan nan nan nan nan nan nan nan nan nan nan nan nan nan nan nan nan nan nan nan nan nan nan nan nan nan nan nan nan nan nan nan nan nan nan nan nan nan nan nan nan nan nan nan nan nan nan nan nan nan nan nan nan nan nan nan nan nan nan nan nan nan nan nan nan nan nan
nan nan nan nan nan nan nan nan nan nan nan nan nan nan nan nan nan nan nan nan nan nan nan nan nan nan nan nan nan nan nan nan nan nan nan nan nan nan nan nan nan nan nan nan nan nan nan nan nan nan nan nan nan nan nan nan nan nan nan nan nan nan nan nan nan nan nan nan nan nan nan nan nan nan nan nan nan nan nan nan nan nan nan nan nan
nan nan nan nan nan nan nan nan nan nan nan nan nan nan nan nan nan nan nan nan nan nan nan nan nan nan nan nan nan nan nan nan nan nan nan nan nan nan nan nan nan nan nan nan nan nan nan nan nan nan nan nan nan nan nan nan nan nan nan nan nan nan nan nan nan nan nan nan nan nan nan nan nan nan nan nan nan nan nan nan nan nan nan nan nan
nan nan nan nan nan nan nan nan nan nan nan nan nan nan nan nan nan nan nan nan nan nan nan nan nan nan nan nan nan nan nan nan nan nan nan nan nan nan nan nan nan nan nan nan nan nan nan nan nan nan nan nan nan nan nan nan nan nan nan nan nan nan nan nan nan nan nan nan nan nan nan nan nan nan nan nan nan nan nan nan nan nan nan nan nan
nan nan nan nan nan nan nan nan nan nan nan nan nan nan nan nan nan nan nan nan nan nan nan nan nan nan nan nan nan nan nan nan nan nan nan nan nan nan nan nan nan nan nan nan nan nan nan nan nan nan nan nan nan nan nan nan nan nan nan nan nan nan nan nan nan nan nan nan nan nan nan nan nan nan nan nan nan nan nan nan nan nan nan nan nan
nan nan nan nan nan nan nan nan nan nan nan nan nan nan nan nan nan nan nan nan nan nan nan nan nan nan nan nan nan nan nan nan nan nan nan nan nan nan nan nan nan nan nan nan nan nan nan nan nan nan nan nan nan nan nan nan nan nan nan nan nan nan nan nan nan nan nan nan nan nan nan nan nan nan nan nan nan nan nan nan nan nan nan nan nan
nan nan nan nan nan nan nan nan nan nan nan nan nan nan nan nan nan nan nan nan nan nan nan nan nan nan nan nan nan nan nan nan nan nan nan nan nan nan nan nan nan nan nan nan nan nan nan nan nan nan nan nan nan nan nan nan nan nan nan nan nan nan nan nan nan nan nan nan nan nan nan nan nan nan nan nan nan nan nan nan nan nan nan nan nan